Wind_Speed
7 7 7 7 8 8 8 8 8 8 8 8 9 9 9 9 9 9 9 9 9 9 9 9 10 10 11 11 12 12 12 12 12 13 13 12 13 13 13 13 14 14 14
8 8 8 8 9 8 8 8 8 8 9 9 10 10 9 9 9 9 9 9 10 10 10 10 11 11 11 12 12 12 13 14 14 13 13 13 13 13 13 13 14 14 14
9 9 9 9 9 9 8 8 9 9 9 9 10 10 9 9 9 10 10 10 10 11 11 11 10 11 11 12 13 13 13 13 14 14 14 14 13 14 14 14 14 14 15
10 10 9 9 9 9 9 9 9 9 9 9 9 9 9 9 10 10 11 11 11 11 11 12 12 12 11 12 13 13 13 14 14 14 14 14 14 14 14 15 15 15 15
12 11 10 11 10 10 10 11 11 10 10 10 10 10 10 11 11 11 11 11 11 11 11 12 12 12 12 12 12 13 13 14 14 14 14 14 14 15 15 15 16 16 16
13 13 12 12 12 12 12 12 12 11 11 10 10 10 11 11 11 12 12 12 12 12 12 12 13 13 12 12 12 12 13 13 13 13 13 14 14 14 14 15 15 16 16
14 14 14 13 13 13 12 12 13 12 12 12 11 12 11 12 12 13 13 13 13 13 13 13 13 13 13 13 13 13 13 13 13 13 13 13 14 14 14 15 15 15 16
15 15 15 14 14 13 13 13 13 12 12 12 12 12 12 13 13 13 13 13 14 14 14 14 13 13 14 14 14 14 14 14 14 13 13 13 14 14 15 15 15 15 16
16 16 15 15 15 14 14 14 14 14 13 12 13 13 13 13 13 14 14 14 15 15 15 15 14 15 15 15 15 15 14 14 15 14 14 14 14 14 15 15 14 15 15
16 16 16 15 15 15 15 16 15 15 14 15 14 14 14 14 15 15 15 15 15 15 16 16 15 15 15 15 15 15 15 15 15 15 15 15 15 15 15 15 15 15 15
17 17 17 17 17 17 17 17 16 16 15 15 15 16 16 16 16 16 16 16 16 16 16 16 16 16 16 16 16 16 16 16 16 16 16 15 15 15 15 15 15 15 16
17 17 18 17 17 18 18 18 18 17 17 16 16 17 17 17 17 17 17 17 17 17 16 17 17 18 17 17 17 17 17 17 16 16 16 16 16 16 16 16 16 16 16
17 17 18 18 18 19 19 19 19 19 19 19 18 18 18 18 18 18 18 18 18 18 18 19 18 18 18 18 18 17 17 18 17 17 17 17 17 17 17 17 17 17 17
17 18 18 18 18 19 20 20 20 20 20 20 20 19 19 19 19 19 19 19 19 19 19 19 20 20 19 19 18 18 18 18 18 18 18 18 18 18 18 18 18 18 18
18 18 19 19 19 19 20 20 20 21 20 20 20 20 20 20 20 20 20 20 19 20 20 20 20 20 20 19 19 19 19 19 20 19 19 19 19 19 19 19 18 18 18
18 18 18 19 20 20 20 21 21 20 21 21 21 21 21 21 21 21 21 20 20 20 21 21 21 21 20 20 21 21 21 21 21 21 21 21 21 20 20 20 20 20 20
19 18 18 18 19 20 21 22 22 22 21 22 22 22 21 21 21 21 22 21 21 21 21 22 22 22 22 22 22 22 22 22 22 22 22 22 22 22 22 22 23 22 22
19 19 19 18 19 19 20 21 22 23 23 23 23 24 23 23 22 22 22 22 23 23 23 23 23 23 23 23 23 24 24 24 23 23 23 23 23 24 24 24 24 24 24
19 20 20 19 19 20 21 21 22 22 23 23 23 24 24 24 24 24 24 24 24 24 24 24 24 23 24 24 24 24 24 24 24 24 24 24 24 24 25 26 26 25 25
21 21 22 22 22 21 22 23 24 24 24 24 24 24 25 25 25 24 25 25 25 24 24 24 24 24 25 25 25 25 25 24 24 24 25 25 25 25 25 25 25 24 24
22 23 23 23 24 24 24 24 25 25 25 25 25 25 25 26 26 25 25 25 26 25 25 25 25 25 25 25 25 25 25 25 25 25 25 25 25 24 24 24 24 24 25
24 24 25 25 25 25 25 25 26 26 26 26 27 26 26 26 26 26 26 26 27 27 27 26 26 26 27 27 27 27 27 27 27 26 26 26 26 26 26 26 26 26 26
25 25 26 27 27 26 26 26 25 26 27 27 28 27 27 26 27 27 27 28 28 28 28 28 28 28 28 28 29 29 28 28 27 27 26 27 27 27 27 27 27 27 28
27 27 27 27 27 27 27 27 27 28 28 28 29 29 29 29 29 29 29 29 29 30 30 30 29 29 29 29 30 29 29 29 28 27 27 27 28 28 28 28 28 28 28
29 29 29 28 28 28 28 28 29 29 30 30 30 30 30 30 31 30 30 30 30 31 31 31 31 31 30 30 30 30 30 30 29 29 29 29 29 29 30 30 30 29 29
29 30 29 29 29 29 29 30 30 30 30 30 30 30 30 30 30 31 31 31 32 32 32 32 32 32 32 32 32 32 31 31 31 31 31 31 31 31 31 31 31 31 30
Wind_Direction
261 265 269 273 274 273 269 262 257 258 263 267 265 264 266 268 269 272 273 277 280 283 278 282 286 288 288 288 287 285 284 284 284 283 281 279 276 273 268 265 263 261 259
263 263 268 273 274 275 271 263 259 263 265 266 265 265 266 266 267 273 276 278 282 285 279 284 287 288 288 288 288 287 286 283 283 283 283 281 278 276 272 269 265 264 262
258 261 266 270 270 270 270 265 260 261 262 265 264 263 265 268 270 274 278 279 280 283 285 292 288 289 289 288 288 287 287 286 285 282 280 280 279 277 273 271 269 268 266
259 263 268 272 268 268 268 265 266 263 263 265 267 267 270 272 275 279 283 281 279 283 289 292 290 294 289 288 287 286 286 286 285 283 280 279 278 276 274 271 269 268 266
263 265 268 270 269 268 266 265 265 263 264 270 270 269 272 273 276 280 282 284 283 285 290 293 294 294 292 292 289 285 285 285 283 282 281 279 277 275 273 270 269 268 265
264 263 266 268 268 268 266 266 262 261 262 266 268 269 272 274 277 280 280 283 284 286 290 293 295 294 294 292 291 288 288 286 284 282 280 280 278 276 273 270 269 268 266
263 263 264 267 267 267 267 264 261 262 263 263 266 269 272 275 278 280 280 282 284 286 289 291 294 294 295 294 291 289 289 288 285 283 282 283 282 278 275 273 271 270 267
264 262 263 263 263 264 264 262 261 261 267 265 266 269 270 273 276 279 281 283 284 285 287 289 290 291 291 292 292 291 289 289 287 286 284 285 285 281 277 275 272 270 269
265 262 262 262 262 262 262 263 262 263 267 270 268 270 272 274 276 278 280 283 285 285 285 285 286 288 289 290 291 291 289 287 285 285 285 284 285 283 280 277 275 273 272
268 264 262 262 263 263 261 261 261 262 267 270 270 271 274 276 275 275 278 281 284 285 284 284 285 286 287 287 290 288 287 285 284 283 282 282 282 281 280 279 277 276 275
268 265 264 262 262 261 261 261 261 264 267 270 272 273 275 276 276 275 276 278 280 283 284 284 284 285 286 287 287 287 286 284 282 281 282 282 281 280 280 280 280 278 278
269 267 264 262 259 259 260 262 263 264 268 270 273 274 275 276 277 276 275 276 278 281 282 283 282 283 284 285 285 286 286 285 283 282 282 282 282 279 280 282 282 280 279
270 268 265 263 260 260 259 260 263 265 267 269 272 274 274 276 277 277 275 275 276 278 279 281 281 282 283 284 284 286 285 284 283 283 281 281 282 280 280 281 281 280 280
271 269 267 265 262 262 262 262 263 264 265 268 269 273 276 276 278 277 275 275 276 278 279 280 280 281 281 281 282 284 284 283 283 281 278 278 279 278 279 281 281 280 279
275 274 271 270 267 266 265 264 263 261 262 267 269 271 273 274 275 276 275 274 276 278 279 278 280 280 280 280 280 282 283 282 281 281 280 277 277 277 278 280 281 280 278
276 275 273 272 271 269 267 265 264 262 262 265 270 271 271 274 274 274 274 274 276 278 279 278 280 280 280 280 280 281 281 281 282 281 281 279 277 277 278 278 279 280 279
274 275 275 273 272 269 269 267 265 267 266 266 269 271 272 273 273 272 272 274 275 276 277 277 279 281 280 280 280 280 280 280 279 279 279 278 275 276 277 277 279 280 279
274 276 277 277 276 272 271 270 269 268 268 269 267 270 272 273 273 273 275 274 274 275 275 276 278 278 278 278 279 281 281 281 279 278 277 276 274 274 276 276 277 278 277
272 275 277 279 278 275 274 273 272 271 271 271 270 269 271 273 273 274 276 277 277 275 274 276 278 278 278 279 279 281 282 282 280 278 277 277 275 274 275 275 276 276 274
273 274 276 278 279 277 275 276 274 273 271 270 271 270 271 273 274 274 275 276 276 277 277 277 278 278 278 278 280 281 282 284 282 281 280 280 278 276 276 274 274 273 272
273 276 277 277 278 277 275 275 275 275 273 271 271 271 273 273 274 273 273 274 275 276 278 279 279 279 277 276 278 280 282 282 282 282 281 279 279 278 277 276 273 272 271
274 277 278 278 278 277 275 275 275 275 275 274 272 271 273 274 274 273 273 273 274 276 276 277 278 278 277 277 277 278 279 280 280 280 279 278 279 279 278 276 274 273 271
275 276 277 277 278 278 277 275 274 275 276 277 274 272 273 273 274 273 272 273 274 276 276 277 277 277 277 278 278 278 279 279 279 279 279 279 279 279 278 277 276 274 272
277 277 279 277 277 277 277 275 275 276 277 277 275 273 272 272 274 273 272 273 274 275 276 276 276 276 276 277 279 279 279 279 278 278 278 279 278 278 279 278 277 274 273
279 278 277 276 275 274 274 275 276 277 278 277 275 274 272 272 272 273 273 273 274 275 275 275 276 276 275 276 277 278 279 279 278 278 278 278 278 278 279 277 276 275 274
279 279 279 278 277 277 276 277 277 277 278 278 277 275 273 273 272 273 274 275 275 275 275 275 275 275 275 275 276 276 278 278 278 277 278 278 279 279 279 277 275 274 273
Height
5828 5827 5827 5827 5827 5827 5827 5827 5828 5828 5828 5828 5829 5829 5829 5829 5829 5829 5829 5829 5829 5829 5828 5828 5827 5827 5826 5826 5825 5825 5824 5823 5822 5822 5821 5821 5820 5820 5820 5820 5820 5820 5821
5826 5825 5825 5825 5825 5824 5824 5824 5825 5825 5826 5826 5826 5826 5827 5827 5827 5827 5827 5827 5826 5826 5826 5825 5825 5824 5824 5823 5822 5821 5821 5820 5819 5819 5818 5818 5818 5817 5817 5817 5817 5817 5817
5823 5823 5823 5822 5822 5822 5822 5822 5823 5823 5823 5823 5824 5824 5824 5824 5824 5824 5824 5824 5824 5823 5823 5822 5822 5821 5820 5819 5819 5818 5817 5816 5816 5815 5815 5815 5814 5814 5814 5813 5813 5813 5814
5820 5820 5820 5820 5819 5819 5819 5820 5820 5820 5820 5821 5821 5821 5821 5821 5821 5821 5821 5821 5821 5820 5820 5819 5818 5818 5817 5816 5815 5814 5814 5813 5812 5812 5811 5811 5811 5810 5810 5810 5810 5810 5810
5818 5817 5817 5817 5817 5817 5817 5817 5817 5817 5817 5817 5818 5818 5818 5818 5818 5818 5818 5818 5817 5817 5816 5816 5815 5814 5813 5812 5811 5811 5810 5809 5809 5808 5808 5807 5807 5806 5806 5806 5806 5806 5806
5815 5814 5814 5813 5813 5814 5814 5814 5813 5814 5814 5814 5815 5815 5815 5815 5815 5815 5815 5814 5814 5813 5813 5812 5811 5810 5809 5808 5808 5807 5806 5806 5805 5804 5804 5803 5803 5803 5802 5802 5802 5802 5802
5811 5811 5810 5810 5810 5810 5810 5810 5810 5811 5811 5811 5811 5811 5811 5811 5812 5811 5811 5811 5810 5810 5809 5808 5807 5806 5806 5805 5804 5803 5802 5802 5801 5801 5800 5799 5799 5798 5798 5798 5797 5797 5797
5806 5806 5806 5806 5806 5806 5806 5807 5807 5807 5807 5807 5807 5807 5808 5808 5808 5808 5807 5807 5806 5806 5805 5804 5803 5802 5802 5801 5800 5799 5798 5798 5797 5797 5796 5795 5795 5794 5794 5794 5793 5793 5793
5802 5802 5802 5802 5802 5802 5802 5803 5803 5803 5803 5803 5803 5803 5803 5803 5803 5803 5803 5803 5802 5802 5801 5800 5799 5798 5797 5797 5796 5795 5794 5794 5793 5792 5792 5791 5791 5790 5790 5789 5789 5789 5788
5797 5797 5797 5797 5797 5798 5798 5798 5799 5799 5799 5799 5799 5799 5799 5799 5799 5799 5799 5798 5798 5797 5796 5796 5795 5794 5793 5792 5791 5791 5790 5789 5789 5788 5788 5787 5786 5786 5785 5785 5784 5784 5784
5792 5792 5792 5792 5792 5793 5794 5794 5794 5795 5795 5795 5795 5794 5794 5794 5794 5794 5793 5793 5793 5792 5791 5791 5790 5789 5789 5788 5787 5786 5785 5785 5784 5784 5783 5782 5782 5781 5781 5780 5780 5779 5779
5787 5787 5787 5787 5787 5788 5789 5789 5789 5789 5790 5790 5790 5789 5789 5789 5788 5788 5788 5788 5787 5787 5787 5786 5785 5784 5784 5783 5782 5781 5780 5779 5779 5778 5778 5778 5777 5777 5776 5776 5775 5775 5774
5782 5782 5782 5782 5782 5783 5783 5783 5784 5784 5784 5784 5784 5784 5784 5783 5783 5783 5782 5782 5782 5781 5781 5780 5780 5779 5778 5778 5777 5776 5775 5774 5773 5773 5773 5773 5772 5772 5771 5771 5770 5770 5769
5777 5777 5777 5777 5777 5777 5777 5777 5778 5778 5778 5778 5778 5778 5778 5778 5777 5777 5777 5776 5776 5776 5775 5775 5774 5773 5772 5772 5771 5770 5770 5769 5768 5768 5767 5767 5767 5766 5766 5765 5765 5764 5764
5772 5772 5772 5771 5771 5771 5771 5771 5771 5771 5772 5772 5772 5772 5772 5772 5771 5771 5771 5770 5770 5770 5769 5769 5768 5767 5766 5766 5765 5765 5764 5763 5763 5762 5761 5761 5761 5760 5760 5760 5759 5759 5758
5767 5766 5766 5766 5765 5765 5765 5765 5765 5765 5765 5766 5766 5766 5766 5765 5765 5765 5764 5764 5764 5763 5763 5763 5762 5761 5760 5760 5759 5758 5758 5757 5757 5756 5755 5755 5754 5754 5753 5753 5753 5752 5752
5761 5761 5760 5760 5759 5758 5759 5759 5759 5759 5759 5759 5760 5759 5759 5759 5758 5758 5758 5757 5757 5757 5757 5756 5755 5755 5754 5753 5752 5751 5751 5750 5750 5749 5748 5748 5748 5747 5747 5747 5746 5746 5745
5756 5755 5755 5754 5753 5753 5752 5752 5752 5752 5752 5752 5752 5752 5752 5752 5751 5751 5751 5751 5750 5750 5749 5749 5748 5747 5747 5746 5745 5744 5743 5743 5742 5742 5741 5741 5740 5740 5740 5740 5739 5739 5738
5750 5750 5749 5748 5748 5747 5746 5746 5746 5746 5745 5745 5745 5745 5745 5744 5744 5744 5744 5743 5743 5742 5741 5741 5740 5740 5739 5738 5738 5737 5736 5735 5735 5734 5733 5733 5733 5733 5732 5732 5732 5732 5731
5744 5744 5743 5742 5741 5741 5740 5740 5739 5739 5738 5738 5738 5738 5737 5737 5736 5736 5736 5735 5735 5734 5734 5733 5733 5732 5731 5731 5730 5729 5728 5728 5727 5727 5726 5725 5725 5725 5724 5724 5724 5724 5724
5738 5737 5736 5736 5735 5734 5733 5732 5732 5731 5731 5731 5730 5730 5729 5729 5729 5728 5728 5727 5727 5726 5726 5725 5725 5724 5724 5723 5722 5722 5721 5720 5720 5719 5719 5718 5717 5717 5716 5716 5716 5716 5716
5731 5730 5729 5728 5728 5726 5725 5725 5724 5724 5723 5723 5722 5722 5721 5721 5720 5720 5720 5719 5719 5718 5718 5717 5717 5716 5716 5715 5715 5714 5713 5712 5712 5711 5711 5710 5710 5709 5709 5708 5708 5708 5708
5723 5723 5722 5721 5720 5719 5718 5717 5717 5716 5715 5715 5714 5713 5713 5712 5712 5712 5711 5711 5710 5710 5709 5709 5708 5708 5707 5707 5706 5705 5705 5704 5703 5703 5702 5702 5701 5701 5700 5700 5699 5699 5699
5716 5715 5714 5712 5712 5711 5710 5709 5708 5708 5707 5706 5705 5705 5704 5704 5703 5703 5702 5702 5701 5701 5700 5700 5700 5699 5699 5698 5697 5696 5696 5695 5695 5694 5694 5693 5693 5692 5692 5691 5691 5690 5690
5707 5706 5705 5704 5703 5702 5701 5700 5699 5699 5698 5697 5697 5696 5695 5695 5694 5693 5693 5692 5692 5691 5691 5691 5690 5689 5689 5689 5688 5687 5687 5686 5686 5685 5685 5685 5684 5684 5683 5682 5682 5681 5681
5698 5697 5696 5695 5694 5693 5692 5691 5690 5690 5689 5688 5687 5686 5685 5685 5684 5684 5683 5682 5682 5682 5681 5680 5680 5679 5679 5679 5679 5678 5678 5677 5676 5676 5676 5676 5675 5675 5674 5673 5672 5672 5672